Tracking 35274 objects as of 10-Sep-2026
HD Live streaming from Space Station
objects crossing your sky now

PSLV DEB


PSLV DEB is no longer on orbit


NORAD ID: 27361
Int'l Code: 2001-049MJ
Launch date: October 22, 2001
Source: India (IND)
Launch site: SRIHARIKOTA (SRI)
Decay date: 2002-04-21

Note: This is SATELLITE DEBRIS
Your satellite tracking list
Your tracking list is empty




NASA's NSSDC Master Catalog

Two Line Element Set (TLE):
1 27361U 01049MJ  02109.24291191 +.04445380 +00000-0 +23111-1 0  9991
2 27361 097.7810 188.9825 0023002 310.0071 059.5426 15.77008683019122
Source of the keplerian elements: AFSPC